N718DF FL43-KLAL

Flight info

Callsign N718DF
Flight time 0h 18m
Altitude 3500
Route VPMNO VPFSY VPTCK VPKER SNFN1 SNFN2
Aircraft C172/L-G/S

Departure

Time 2026-04-22 00:47
Airport Burntwood Ranch Airport (FL43)

Arrival

Time 2026-04-22 01:06
Airport Lakeland Linder International Airport (KLAL)
Time Latitude Longitude Altitude Speed Heading
2026-04-22 00:46 28.28117 -81.92819 281 ft 59 kts 110°
2026-04-22 00:47 28.28001 -81.92410 520 ft 53 kts 111°
2026-04-22 00:47 28.27832 -81.92048 690 ft 55 kts 116°
2026-04-22 00:47 28.27619 -81.91689 863 ft 60 kts 121°
2026-04-22 00:47 28.27282 -81.91372 1031 ft 72 kts 152°
2026-04-22 00:48 28.26709 -81.91348 1130 ft 88 kts 168°
2026-04-22 00:48 28.26084 -81.91230 1219 ft 90 kts 157°
2026-04-22 00:48 28.25460 -81.91089 1239 ft 92 kts 156°
2026-04-22 00:48 28.24824 -81.90938 1295 ft 90 kts 155°
2026-04-22 00:49 28.24273 -81.90676 1312 ft 84 kts 133°
2026-04-22 00:49 28.23911 -81.90174 1316 ft 81 kts 114°
2026-04-22 00:49 28.23611 -81.89626 1371 ft 79 kts 119°
2026-04-22 00:49 28.23244 -81.89156 1399 ft 80 kts 123°
2026-04-22 00:50 28.22844 -81.88687 1354 ft 84 kts 127°
2026-04-22 00:50 28.22453 -81.88203 1347 ft 80 kts 122°
2026-04-22 00:50 28.22101 -81.87689 1304 ft 83 kts 120°
2026-04-22 00:50 28.21754 -81.87174 1294 ft 81 kts 119°
2026-04-22 00:51 28.21425 -81.86651 1269 ft 82 kts 117°
2026-04-22 00:51 28.21093 -81.86105 1244 ft 81 kts 117°
2026-04-22 00:51 28.20753 -81.85599 1232 ft 82 kts 127°
2026-04-22 00:51 28.20335 -81.85139 1212 ft 83 kts 127°
2026-04-22 00:52 28.19918 -81.84687 1209 ft 82 kts 126°
2026-04-22 00:52 28.19522 -81.84215 1201 ft 81 kts 124°
2026-04-22 00:52 28.19130 -81.83753 1189 ft 82 kts 125°
2026-04-22 00:52 28.18827 -81.83382 1171 ft 82 kts 124°
2026-04-22 00:53 28.18452 -81.82904 1187 ft 79 kts 121°
2026-04-22 00:53 28.18085 -81.82411 1191 ft 80 kts 121°
2026-04-22 00:53 28.17747 -81.81910 1216 ft 79 kts 118°
2026-04-22 00:53 28.17399 -81.81410 1243 ft 80 kts 124°
2026-04-22 00:54 28.16967 -81.80995 1250 ft 87 kts 142°
2026-04-22 00:54 28.16316 -81.80894 1230 ft 103 kts 180°
2026-04-22 00:54 28.15653 -81.81249 1270 ft 105 kts 197°
2026-04-22 00:54 28.15000 -81.81639 1289 ft 104 kts 193°
2026-04-22 00:55 28.14321 -81.81871 1312 ft 97 kts 175°
2026-04-22 00:55 28.13659 -81.81973 1319 ft 94 kts 171°
2026-04-22 00:55 28.12337 -81.82283 1286 ft 102 kts 189°
2026-04-22 00:56 28.11725 -81.82735 1285 ft 111 kts 225°
2026-04-22 00:56 28.11459 -81.83569 1279 ft 116 kts 253°
2026-04-22 00:56 28.11277 -81.84482 1250 ft 117 kts 254°
2026-04-22 00:56 28.11057 -81.85368 1238 ft 116 kts 245°
2026-04-22 00:57 28.10745 -81.86208 1237 ft 115 kts 239°
2026-04-22 00:57 28.10378 -81.87014 1230 ft 114 kts 234°
2026-04-22 00:57 28.10045 -81.87841 1216 ft 116 kts 240°
2026-04-22 00:57 28.09737 -81.88681 1215 ft 115 kts 243°
2026-04-22 00:58 28.09433 -81.89537 1207 ft 115 kts 241°
2026-04-22 00:58 28.09127 -81.90348 1231 ft 112 kts 240°
2026-04-22 00:58 28.08802 -81.91170 1221 ft 113 kts 239°
2026-04-22 00:58 28.08478 -81.91985 1232 ft 112 kts 239°
2026-04-22 00:59 28.08256 -81.92780 1274 ft 110 kts 268°
2026-04-22 00:59 28.08247 -81.93662 1276 ft 114 kts 269°
2026-04-22 00:59 28.08251 -81.94569 1280 ft 116 kts 269°
2026-04-22 00:59 28.08248 -81.95487 1289 ft 116 kts 269°
2026-04-22 01:00 28.08229 -81.96403 1301 ft 116 kts 262°
2026-04-22 01:00 28.08034 -81.97290 1289 ft 115 kts 239°
2026-04-22 01:00 28.07620 -81.98056 1289 ft 111 kts 228°
2026-04-22 01:00 28.07180 -81.98772 1286 ft 109 kts 227°
2026-04-22 01:01 28.06712 -81.99461 1274 ft 109 kts 222°
2026-04-22 01:01 28.06225 -82.00118 1263 ft 109 kts 220°
2026-04-22 01:01 28.05736 -82.00783 1260 ft 108 kts 222°
2026-04-22 01:01 28.05257 -82.01466 1252 ft 110 kts 224°
2026-04-22 01:02 28.04753 -82.02087 1261 ft 102 kts 202°
2026-04-22 01:02 28.04115 -82.02290 1228 ft 93 kts 168°
2026-04-22 01:02 28.03495 -82.02195 1233 ft 86 kts 154°
2026-04-22 01:02 28.02896 -82.02069 1246 ft 87 kts 162°
2026-04-22 01:03 28.02283 -82.02058 1227 ft 87 kts 164°
2026-04-22 01:03 28.01679 -82.02023 1211 ft 88 kts 163°
2026-04-22 01:03 28.01067 -82.01979 1212 ft 87 kts 163°
2026-04-22 01:03 28.00448 -82.01988 1201 ft 94 kts 191°
2026-04-22 01:04 28.00013 -82.02604 960 ft 110 kts 258°
2026-04-22 01:04 28.00015 -82.03369 910 ft 89 kts 271°
2026-04-22 01:04 27.99682 -82.03854 672 ft 77 kts 175°
2026-04-22 01:04 27.99235 -82.03729 482 ft 58 kts 126°
2026-04-22 01:05 27.99068 -82.03315 348 ft 59 kts 97°
2026-04-22 01:05 27.99038 -82.02856 269 ft 59 kts 86°
2026-04-22 01:05 27.99037 -82.02386 204 ft 58 kts 85°
2026-04-22 01:05 27.99039 -82.01946 168 ft 53 kts 86°
2026-04-22 01:06 27.99041 -82.01583 136 ft 35 kts 92°
2026-04-22 01:06 27.99041 -82.01351 138 ft 26 kts 87°
2026-04-22 01:06 27.99040 -82.01141 139 ft 27 kts 88°
2026-04-22 01:06 27.99041 -82.00952 141 ft 20 kts 89°
2026-04-22 01:07 27.98996 -82.00833 142 ft 15 kts 179°
2026-04-22 01:07 27.98910 -82.00869 142 ft 14 kts 199°
2026-04-22 01:07 27.98827 -82.00897 140 ft 14 kts 178°
2026-04-22 01:07 27.98783 -82.00940 139 ft 7 kts 291°
2026-04-22 01:08 27.98789 -82.00958 139 ft 0 kts 285°